When you browse on this site, cookies collect data to enhance your experience and personalize the content and advertising you see.
Visit our Privacy Policy to learn more. By continuing to use the site, you agree to this use of cookies and data.

Hourly Weather Ghent

Today, 9 August, Sunday

Time Temperature Precipitation Wind Pressure Humidity
00:00 +26°C° 0.3 mm 3 mps 762 mmHg 58%
01:00 +26°C° 0.1 mm 3 mps 762 mmHg 60%
02:00 +25°C° 0.1 mm 3 mps 762 mmHg 62%
03:00 +25°C° 0.1 mm 2 mps 762 mmHg 64%
04:00 +25°C° 0.8 mm 2 mps 762 mmHg 66%
05:00 +25°C° 0.8 mm 2 mps 762 mmHg 68%
06:00 +25°C° 0.8 mm 2 mps 761 mmHg 70%
07:00 +27°C° 0.1 mm 2 mps 762 mmHg 64%
08:00 +29°C° 0.1 mm 3 mps 762 mmHg 57%
09:00 +30°C° 0.1 mm 4 mps 762 mmHg 51%
10:00 +33°C° 0.1 mm 4 mps 761 mmHg 46%
11:00 +35°C° 0.1 mm 4 mps 761 mmHg 41%
12:00 +36°C° 0.1 mm 4 mps 761 mmHg 36%
13:00 +37°C° 0 mm 4 mps 760 mmHg 34%
14:00 +37°C° 0 mm 4 mps 760 mmHg 33%
15:00 +38°C° 0 mm 4 mps 760 mmHg 31%
16:00 +37°C° 0 mm 4 mps 760 mmHg 35%
17:00 +35°C° 0 mm 4 mps 759 mmHg 39%
18:00 +34°C° 0 mm 4 mps 759 mmHg 43%
19:00 +33°C° 0.2 mm 4 mps 759 mmHg 48%
20:00 +30°C° 0.2 mm 4 mps 759 mmHg 53%
21:00 +29°C° 0.2 mm 4 mps 760 mmHg 57%
22:00 +27°C° 0.5 mm 4 mps 760 mmHg 62%
23:00 +26°C° 0.5 mm 3 mps 760 mmHg 67%

Tomorrow, 10 August, Monday

Time Temperature Precipitation Wind Pressure Humidity
00:00 +25°C° 0.5 mm 2 mps 760 mmHg 71%
01:00 +25°C° 0.9 mm 2 mps 759 mmHg 74%
02:00 +24°C° 0.9 mm 2 mps 759 mmHg 76%
03:00 +24°C° 0.9 mm 2 mps 759 mmHg 79%
04:00 +24°C° 0.3 mm 3 mps 759 mmHg 79%
05:00 +24°C° 0.3 mm 3 mps 759 mmHg 79%
06:00 +24°C° 0.3 mm 3 mps 759 mmHg 80%
07:00 +26°C° 0 mm 3 mps 759 mmHg 72%
08:00 +28°C° 0 mm 3 mps 759 mmHg 65%
09:00 +30°C° 0 mm 3 mps 759 mmHg 57%
10:00 +31°C° 0 mm 3 mps 759 mmHg 51%
11:00 +34°C° 0 mm 3 mps 759 mmHg 44%
12:00 +36°C° 0 mm 3 mps 759 mmHg 37%
13:00 +36°C° 0 mm 3 mps 759 mmHg 35%
14:00 +37°C° 0 mm 3 mps 759 mmHg 33%
15:00 +38°C° 0 mm 2 mps 759 mmHg 31%
16:00 +36°C° 0 mm 2 mps 758 mmHg 35%
17:00 +35°C° 0 mm 2 mps 758 mmHg 40%
18:00 +32°C° 0 mm 2 mps 758 mmHg 45%
19:00 +30°C° 0.2 mm 3 mps 758 mmHg 50%
20:00 +29°C° 0.2 mm 3 mps 759 mmHg 56%
21:00 +27°C° 0.2 mm 4 mps 759 mmHg 61%
22:00 +27°C° 0.1 mm 4 mps 759 mmHg 62%
23:00 +26°C° 0.1 mm 3 mps 759 mmHg 63%

Day after tomorrow, 11 August, Tuesday

Time Temperature Precipitation Wind Pressure Humidity
00:00 +26°C° 0.1 mm 3 mps 759 mmHg 64%
01:00 +25°C° 0 mm 3 mps 759 mmHg 64%
02:00 +25°C° 0 mm 3 mps 759 mmHg 65%
03:00 +25°C° 0 mm 2 mps 759 mmHg 65%
04:00 +25°C° 0 mm 2 mps 759 mmHg 65%
05:00 +25°C° 0 mm 2 mps 759 mmHg 65%
06:00 +26°C° 0 mm 2 mps 759 mmHg 65%
07:00 +28°C° 0 mm 2 mps 759 mmHg 58%
08:00 +30°C° 0 mm 2 mps 759 mmHg 52%
09:00 +32°C° 0 mm 2 mps 759 mmHg 46%
10:00 +34°C° 0 mm 3 mps 759 mmHg 42%
11:00 +36°C° 0 mm 3 mps 759 mmHg 37%
12:00 +37°C° 0 mm 3 mps 759 mmHg 33%
13:00 +37°C° 0 mm 3 mps 759 mmHg 33%
14:00 +38°C° 0 mm 3 mps 759 mmHg 32%
15:00 +38°C° 0 mm 3 mps 758 mmHg 31%
16:00 +37°C° 0 mm 3 mps 758 mmHg 35%
17:00 +36°C° 0 mm 3 mps 758 mmHg 39%
18:00 +34°C° 0 mm 3 mps 758 mmHg 42%
19:00 +33°C° 0 mm 3 mps 758 mmHg 45%
20:00 +32°C° 0 mm 4 mps 758 mmHg 48%
21:00 +29°C° 0 mm 4 mps 759 mmHg 51%
22:00 +29°C° 0.1 mm 3 mps 759 mmHg 54%
23:00 +28°C° 0.1 mm 3 mps 759 mmHg 56%

12 August, Wednesday

Time Temperature Precipitation Wind Pressure Humidity
00:00 +27°C° 0.1 mm 3 mps 759 mmHg 58%
01:00 +27°C° 0 mm 2 mps 758 mmHg 59%
02:00 +26°C° 0 mm 2 mps 758 mmHg 61%
03:00 +26°C° 0 mm 2 mps 758 mmHg 62%
04:00 +26°C° 0 mm 2 mps 758 mmHg 62%
05:00 +26°C° 0 mm 2 mps 758 mmHg 63%
06:00 +26°C° 0 mm 2 mps 758 mmHg 63%
07:00 +28°C° 0 mm 3 mps 758 mmHg 57%
08:00 +30°C° 0 mm 3 mps 758 mmHg 52%
09:00 +34°C° 0 mm 4 mps 757 mmHg 46%
10:00 +35°C° 0 mm 4 mps 757 mmHg 42%
11:00 +36°C° 0 mm 4 mps 757 mmHg 38%
12:00 +37°C° 0 mm 5 mps 757 mmHg 35%
13:00 +37°C° 0 mm 5 mps 756 mmHg 35%
14:00 +37°C° 0 mm 5 mps 756 mmHg 35%
15:00 +37°C° 0 mm 5 mps 756 mmHg 35%
16:00 +36°C° 0 mm 4 mps 756 mmHg 39%
17:00 +35°C° 0 mm 4 mps 756 mmHg 43%
18:00 +34°C° 0 mm 3 mps 756 mmHg 47%
19:00 +30°C° 2.8 mm 3 mps 756 mmHg 60%
20:00 +27°C° 2.8 mm 3 mps 756 mmHg 72%
21:00 +24°C° 2.8 mm 3 mps 757 mmHg 85%
22:00 +24°C° 1.2 mm 3 mps 757 mmHg 86%
23:00 +24°C° 1.2 mm 2 mps 757 mmHg 87%

13 August, Thursday

Time Temperature Precipitation Wind Pressure Humidity
00:00 +24°C° 1.2 mm 2 mps 757 mmHg 88%
01:00 +24°C° 0.2 mm 2 mps 757 mmHg 89%
02:00 +23°C° 0.2 mm 1 mps 757 mmHg 90%
03:00 +23°C° 0.2 mm 1 mps 756 mmHg 90%
04:00 +23°C° 0.1 mm 2 mps 757 mmHg 89%
05:00 +23°C° 0.1 mm 2 mps 757 mmHg 87%
06:00 +24°C° 0.1 mm 3 mps 757 mmHg 86%
07:00 +23°C° 0.1 mm 4 mps 757 mmHg 79%
08:00 +23°C° 0.1 mm 4 mps 758 mmHg 73%
09:00 +23°C° 0.1 mm 5 mps 758 mmHg 66%
10:00 +25°C° 0 mm 5 mps 758 mmHg 61%
11:00 +26°C° 0 mm 5 mps 758 mmHg 56%
12:00 +28°C° 0 mm 5 mps 759 mmHg 51%
13:00 +26°C° 0 mm 5 mps 759 mmHg 54%
14:00 +25°C° 0 mm 5 mps 759 mmHg 58%
15:00 +23°C° 0 mm 4 mps 759 mmHg 61%
16:00 +25°C° 0 mm 4 mps 759 mmHg 62%
17:00 +25°C° 0 mm 3 mps 759 mmHg 62%
18:00 +25°C° 0 mm 2 mps 760 mmHg 62%
19:00 +23°C° 0 mm 1 mps 760 mmHg 66%
20:00 +22°C° 0 mm 1 mps 760 mmHg 70%
21:00 +21°C° 0 mm 1 mps 760 mmHg 74%
22:00 +20°C° 0 mm 1 mps 760 mmHg 76%
23:00 +20°C° 0 mm 1 mps 760 mmHg 78%

14 August, Friday

Time Temperature Precipitation Wind Pressure Humidity
00:00 +19°C° 0 mm 1 mps 761 mmHg 80%
01:00 +19°C° 0 mm 1 mps 760 mmHg 81%
02:00 +19°C° 0 mm 1 mps 760 mmHg 83%
03:00 +19°C° 0 mm 1 mps 760 mmHg 84%
04:00 +19°C° 0 mm 1 mps 760 mmHg 82%
05:00 +20°C° 0 mm 1 mps 760 mmHg 80%
06:00 +20°C° 0 mm 1 mps 760 mmHg 78%
07:00 +22°C° 0 mm 1 mps 760 mmHg 70%
08:00 +24°C° 0 mm 1 mps 761 mmHg 62%
09:00 +25°C° 0 mm 2 mps 761 mmHg 54%
10:00 +26°C° 0 mm 2 mps 760 mmHg 50%
11:00 +28°C° 0 mm 2 mps 760 mmHg 46%
12:00 +29°C° 0 mm 2 mps 760 mmHg 42%
13:00 +29°C° 0 mm 2 mps 760 mmHg 42%
14:00 +29°C° 0 mm 2 mps 759 mmHg 43%
15:00 +29°C° 0 mm 1 mps 759 mmHg 43%
16:00 +28°C° 0 mm 2 mps 759 mmHg 47%
17:00 +27°C° 0 mm 2 mps 759 mmHg 51%
18:00 +26°C° 0 mm 2 mps 759 mmHg 56%
19:00 +25°C° 0 mm 2 mps 759 mmHg 59%
20:00 +24°C° 0 mm 2 mps 759 mmHg 63%
21:00 +23°C° 0 mm 2 mps 759 mmHg 67%
22:00 +21°C° 0 mm 3 mps 759 mmHg 68%
23:00 +21°C° 0 mm 3 mps 759 mmHg 69%
Show more